Location: Unspecified
(52.4292°N, 19.3359°E)
Time: 09:58:49
(UTC+02:00)

Tiros 1 - Pass Details

Date: 21 May 2024
Orbit: 624 x 657 km, 48.4° (Epoch: 22 June)

Event Time Altitude Azimuth Distance (km) Brightness Sun altitude
Rises 15:09:40 0° 255° (WSW) 2,978 11.2 46.8°
Reaches altitude 10° 15:12:03 10° 250° (WSW) 2,068 10.7 46.5°
Maximum altitude 15:16:41 52° 175° (S) 816 8.6 45.9°
Drops below altitude 10° 15:21:19 10° 99° (E) 2,064 9.5 45.3°
Sets 15:23:41 0° 95° (E) 2,972 10.2 45.0°
